{"data":{"norad_id":63358,"intl_designator":"2025-061H","name":"LEMUR-2-LANGER2SPACE","alt_names":[],"object_type":"PAYLOAD","status":"ACTIVE","operator":null,"country":"US","launch_date":"2025-03-26","launch_site_code":"RLLB","launch_vehicle":null,"mission":null,"orbit_class":"UNKNOWN","rcs_meters":null,"size_class":null,"mass_kg":null,"dimensions":null,"purposes":["earth_obs"],"wikipedia_slug":null,"has_3d_model":false,"image_url":null,"decayed_at":null,"tle_current":{"epoch":"2026-05-25T00:26:57.605856Z","epoch_age_seconds":63708,"freshness":"FRESH","line1":"1 63358U 25061H   26145.01872229  .00003712  00000+0  20704-3 0  9996","line2":"2 63358  97.5603 120.8824 0016221 344.3311  15.7416 15.14087931 64118","mean_motion":15.14087931,"eccentricity":0.0016221,"inclination_deg":97.5603,"raan_deg":120.8824,"arg_perigee_deg":344.3311,"mean_anomaly_deg":15.7416,"bstar":0.00020704,"rev_number":6411,"period_min":95.106761669313,"perigee_km":512.55336424183,"apogee_km":534.94446252203,"semimajor_km":6901.8859133819,"source":"CELESTRAK","updated_at":"2026-05-25T13:38:13.542458Z"}}}